www.pogodaiklimat.ru

Погода и климат >> Архив погоды >> Туркменистан >> Гаррыгала


ПОГОДА в Гаррыгале

  • Прогноз погоды в Гаррыгале
  • Монитор погоды в Гаррыгале

АРХИВ ПОГОДЫ в Гаррыгале

Время (UTC), дата Ветер
(напр.,м/с)
 
Видим.   Явления Облачность Т
(С)
Тd
(С)
f
(%)
Тe
(С)
Тes
(С)
Комфортность P
(гПа)
Po
(гПа)
Тmin
(С)
Tmax
(С)
R
(мм)
R24
(мм)
S
(см)
00 12.09 штиль 0 10 км 6/4 600 м
[Cb cap Ac trans]
+16.0 +5.1 48 +16 +16 1020.4 983.5
03 12.09 В 2 50 км 5/3 600 м
[Cb cap Ac trans]
+15.5 +3.2 44 +16 +16 1021.4 984.4 +15.2
06 12.09 штиль 0 50 км 8/3 1000 м
[Cu med, cong Ac cast]
+24.8 +6.2 30 +25 +29 комфорт 1020.0 984.2 +15.2
09 12.09 З 3 50 км 8/4 600 м
[Cb cap Ac trans]
+26.6 +11.3 38 +28 +32 жарко 1018.3 982.8
12 12.09 СЗ 4 50 км 9/6 600 м
[Cb cap Ac trans]
+25.9 +11.5 41 +27 +28 жарко 1017.1 981.6
15 12.09 З 3 20 км 9/6 600 м
[Cb cap Ac trans]
+22.5 +9.2 43 +24 +24 комфорт 1017.8 981.8 +26.8
18 12.09 штиль 0 10 км 8/5 600 м
[Cb cap Ac trans]
+19.8 +9.3 51 +21 +21 комфорт 1020.3 983.9 +26.8
21 12.09 штиль 0 10 км 4/0
[Ac lent]
+18.0 +10.4 61 +18 +18 1020.4 983.7
00 13.09 штиль 0 10 км ясно +15.2 +9.4 68 +15 +15 1020.3 983.4
03 13.09 В 2 50 км сильная метель 8/8 600 м
[]
+16.4 +8.8 61 +17 +17 1020.9 984.1 +15.0
06 13.09 штиль 0 50 км 9/6 600 м
[Cb cap Ac trans]
+21.4 +14.2 64 +24 +27 комфорт 1020.8 984.6 +15.0
09 13.09 З 5 50 км 8/0
[Ac trans]
+22.5 +15.1 63 +26 +30 жарко 1020.0 984.0
12 13.09 З 4 50 км 8/4 600 м
[Cb cap Ac trans]
+23.2 +15.0 60 +27 +28 душно 1018.5 982.7
15 13.09 штиль 0 20 км 9/6 600 м
[Cb cap Ac trans]
+21.6 +14.5 64 +25 +25 комфорт 1019.1 983.1 +23.5
18 13.09 штиль 0 10 км {ливн. осадки} 10/8 600 м
[Cb cap Ac As]
+19.9 +16.6 81 +22 +22 комфорт 1020.4 984.1 +23.5
21 13.09 штиль 0 10 км 10/8 600 м
[Cb cap Ac As]
+19.5 +17.2 87 +22 +22 комфорт 1020.0 983.7
00 14.09 штиль 0 10 км {ливн. осадки} 10/8 600 м
[Cb cap Ac As]
+19.2 +15.9 81 +21 +21 комфорт 1019.9 983.5
03 14.09 штиль 0 50 км в посл. час ливневой дождь 10/8 600 м
[Cb cap Ac As]
+18.2 +18.0 99 1020.9 1
06 14.09 штиль 0 50 км {ливн. осадки} 8/8 600 м
[Cb cap Ac trans]
+20.4 +15.5 73 +23 +26 комфорт 1021.9 985.5 +18.0 1
09 14.09 З 2 50 км 5/0
[Ac cuf]
+25.2 +12.6 45 +27 +36 жарко 1020.2 984.5
12 14.09 СЗ 2 50 км 5/3 600 м
[Cb cap Ac trans]
+25.8 +11.7 41 +27 +30 жарко 1019.0 983.3
15 14.09 З 1 20 км 5/3 600 м
[Cb cap Ac trans]
+24.2 +11.4 45 +26 +26 жарко 1019.2 983.4 +26.0
18 14.09 штиль 0 10 км 3/0
[Ac trans]
+20.8 +13.5 63 +23 +23 комфорт 1020.5 984.3 +26.0
21 14.09 штиль 0 10 км ясно +16.5 +10.9 69 +16 +16 1020.9 984.1
00 15.09 штиль 0 10 км ясно +13.7 +10.9 83 +13 +13 1021.2 984.0
03 15.09 штиль 0 50 км ясно +14.5 +10.7 78 +14 +15 1021.4 984.4 +13.5
06 15.09 В 2 50 км ясно +23.9 +10.2 42 +25 +35 комфорт 1020.4 984.5 +13.5
09 15.09 З 3 50 км ясно +28.0 +6.1 25 +27 +38 жарко 1018.4 983.0
12 15.09 З 4 50 км ясно +29.6 +4.8 21 +28 +31 жарко 1016.5 981.4
15 15.09 З 2 20 км ясно +26.6 +4.8 25 +26 +26 жарко 1016.6 981.1 +29.8
18 15.09 штиль 0 10 км ясно +20.6 +7.8 44 +22 +22 комфорт 1018.8 982.6 +29.8
21 15.09 штиль 0 10 км ясно +15.7 +8.0 60 +16 +16 1019.4 982.6
00 16.09 штиль 0 10 км ясно +13.7 +7.6 67 +13 +13 1020.0 982.9
03 16.09 штиль 0 50 км ясно +12.5 +7.4 71 +12 +13 1021.8 984.5 +12.2
06 16.09 штиль 0 50 км ясно +24.2 +7.6 35 +25 +37 комфорт 1021.3 985.3 +12.2
09 16.09 З 2 50 км ясно +24.2 +7.6 35 +25 +38 комфорт 1021.3 985.3 +12.2
12 16.09 З 2 50 км ясно +31.8 +5.5 19 +30 +34 жарко 1015.6 980.8
18 16.09 В 2 10 км ясно +24.2 +5.0 29 +24 +24 комфорт 1014.7 979.0 +32.0
00 17.09 В 3 10 км ясно +24.4 +4.0 27 +24 +24 комфорт 1010.7 975.1
03 17.09 В 2 50 км 4/0
[Ac cuf]
+25.0 +3.4 25 +24 +25 комфорт 1010.7 975.2 +23.2
06 17.09 З 5 50 км ясно +27.3 +8.6 31 +27 +32 жарко 1012.4 977.2 +23.2
09 17.09 З 3 50 км ясно +33.3 +9.5 23 +32 +43 жарко 1009.6 975.2
12 17.09 З 4 50 км ясно +36.3 +12.1 23 +36 +39 очень
жарко
1007.5 973.5
15 17.09 штиль 0 20 км ясно +31.6 +14.9 36 +34 +34 душно 1007.3 972.9 +36.7
18 17.09 В 2 10 км ясно +22.9 +11.8 50 +25 +25 комфорт 1008.6 973.1 +36.7
21 17.09 В 2 10 км ясно +23.3 +11.0 46 +26 +26 жарко 1007.4 971.9
00 18.09 штиль 0 10 км ясно +21.2 +11.1 52 +23 +23 комфорт 1008.0 972.3
03 18.09 штиль 0 50 км 5/0
[Ac cuf]
+18.1 +10.5 61 +18 +19 1011.0 974.8 +17.9

 

Местоположение метеостанции Гаррыгала (Балканский велаят, Туркменистан): широта 38.43 долгота 56.30 высота над уровнем моря 312 м.

В архиве по умолчанию представлена погода в Гаррыгале за последнюю неделю. Архивные данные за месяц целиком и за предыдущие месяцы, начиная с января 2011 года, Вы можете получить, выбрав интересующий диапазон дат из раскрывающегося списка и нажав кнопку "Ввод!".


*Определитесь, кто Вы:
робот инопланетянин человек

Внимание! Время в таблицах - всемирное. Для получения местного времени необходимо прибавить поправку, которая равна 5 ч.

Смотрите также архив погоды в соседних городах и на ближайших метеорологических станциях:

Погода в Сердаре (Балканский велаят, Туркменистан) (61 км)
Погода в Мараве Таппе (Иран) (66 км)
Погода в Unknown (Туркменистан) (78 км)
Погода в Бахарлы (Ахалский велаят, Туркменистан) (98 км)
Погода в Газаджаке (Лебапский велаят, Туркменистан) (114 км)
Погода в Боджнурде (Иран) (140 км)
Погода в Гызылетреке (Балканский велаят, Туркменистан) (161 км)
Погода в Ашхабаде (город Ашхабад, Туркменистан) (186 км)
Погода в Небит-Даге (Балканский велаят, Туркменистан) (208 км)
Погода в Ербенте (Ахалский велаят, Туркменистан) (222 км)

Пояснения к столбцам:

Ветер - указаны скорость ветра в м/с - средняя за 10 мин, порывы в срок и между сроками (в фигурных скобках) и направление, откуда дует ветер: С - северный, СВ - северо-восточный, В - восточный, ЮВ - юго-восточный, Ю - южный, ЮЗ - юго-западный, З - западный, СЗ - северо-западный.
Видимость - горизонтальная дальность видимости в метрах или километрах. При видимости от 1 до 10 км при отсутствии осадков обычно наблюдается дымка, при ухудшении видимости до 1 км и менее - туман. В сухую погоду видимость может ухудшаться дымом, пылью или мглою.
Явления - указаны атмосферные явления, наблюдавшиеся в срок или в последний час перед сроком; фигурными скобками обозначены явления, наблюдавшиеся между сроками (за 1-3 часа до срока); квадратными скобками обозначены град или гололедные отложения с указанием их диаметра в мм.
Облачность - указаны через наклонную черту общая и нижняя облачность в баллах и высота нижней границы облаков в метрах; квадратными скобками обозначены формы облаков: Ci - перистые, Cs - перисто-слоистые, Cc - перисто-кучевые, Ac - высококучевые, As - высокослоистые, Sc - слоисто-кучевые, Ns - слоисто-дождевые, Cu - кучевые, Cb - кучево-дождевые. Подробнее классификацию облаков см. в Атласе облаков (PDF).
T - Температура воздуха - температура, измеренная на высоте 2 м над землей.
Td - Температура точки росы - температура, при понижении до которой содержащийся в воздухе водяной пар достигнет насыщения.
f - Относительная влажность воздуха - влажноcть воздуха, измеренная на высоте 2 м над землей.
Te - Эффективная температура - температура, которую ощущает одетый по сезону человек в тени. Характеристика душности погоды. При расчете учитывается влияние влажности воздуха и скорости ветра на теплоощущения человека.
Tes - Эффективная температура на солнце - температура, которую ощущает человек, с поправкой на солнечный нагрев. Характеристика знойности погоды. Зависит от высоты солнца над горизонтом, облачности и скорости ветра. Ночью, в пасмурную погоду, а также при ветре 12 м/с и более поправка равна нулю.
P - Атмосферное давление - приведенное к уровню моря атмосферное давление.
Po - Атмосферное давление - измеренное на уровне метеостанции атмосферное давление.
Tmin - Минимальная температура - минимум температуры воздуха на высоте 2 м над землей.
Tmax - Максимальная температура - максимум температуры воздуха на высоте 2 м над землей.
R - Количество осадков - Количество выпавших осадков за период времени, мм. При наведении курсора мыши на число - период времени, за который выпало указанное количество осадков.
R24 - Количество осадков - Количество выпавших осадков за 24 часа, мм.
S - Снежный покров - Высота снежного покрова, см. При наведении курсора мыши на число - состояние снежного покрова и степень покрытия местности в баллах.